星链-31142 (STARLINK-31142 )

导读

STARLINK-31142是美国太空探索技术公司星链互联网卫星星座的一员,于2024年1月14日发射。星链项目旨在构建全球卫星互联网星座,为地面提供低延迟宽带网络服务。该卫星入轨后承担卫星通信任务,拓展星链系统全球覆盖范围,服务全球偏远地区与移动场景网络接入需求。

基本信息
目录编号:
58779
目录名称:
STARLINK-31142
国际标识:
2024-011Q
轨道中心:
EARTH
卫星名称:
星链-31142
卫星全名:
星链-31142 (STARLINK-31142 )
卫星状态:
在轨 (已飞行964 天)
发射日期:
2024-01-14 UTC
国别 :
美国 (US)
星等 :
--
轨道信息
数据来源 国际轨道数据 AOE轨道数据
星历时间 2026-09-02T17:15:53+0800
1天前
查看轨道信息
2026-09-02T01:00:00+0800
2天前
查看轨道信息
半长轴 6840.873km 6840.865km
偏心率 0.0000943 0.0001609
轨道倾角 53.159° 53.160°
近地点辐角 82.844° 41.684°
升交点赤经 272.196° 275.368°
平近点角 277.267° 172.883°
近地点 462.09km 461.627km
远地点 463.382km 463.829km
周期 93.848分钟 93.848分钟
每日圈数 15.34389 15.343918
详细信息
固有亮度:
5
最大亮度:
0.3
卫星平台:
Starlink v2.0 mini
覆盖范围:
全球
运营商:
太空探索技术公司
运营商所在国:
美国
制造商(研发单位):
太空探索技术公司
制造商所在国:
美国
使用方式:
暂无
卫星简介
星链(Starlink)计划是由太空探索技术公司(SpaceX)提出的一个巨型低轨卫星互联网星座项目,计划在2019年至2024年间在太空搭建由约1.2万颗卫星组成的“星链”网络,其中1584颗将部署在地球上空550千米处的近地轨道,并从2020年开始工作。该卫星仍在工作。
2D轨道图
3D轨道图
轨道高度分析图
轨道倾角分析图
轨道综合分析图
查看轨道综合分析图
交会数据列表
事件ID 空间交会对象 最接近时刻(TCA) 交会距离 交会风险概率(CRP) 交会风险指数(CRI) 操作
CDM_260905-070905-877906-937821
2026-09-05T
07:09:30+0000
0.748 km
远距离
3.233553E-5 中风险 0.65
CDM_260905-142205-877906-419221
2026-09-05T
14:22:00+0000
1.947 km
极远距离
2.0316E-6 低风险 0.41
CDM_260904-195405-328205-877921
2026-09-04T
19:54:31+0000
2.876 km
极远距离
1.26416E-6 低风险 0.37
CDM_260905-071905-877906-583421
2026-09-05T
07:19:34+0000
2.916 km
极远距离
9.345133E-7 极低风险 0.34